User: anonymous   Login
Location: Unspecified
(0.0000°N, 0.0000°E)
Time: 23:57:56
(UTC+00:00)
Language:

STARLINK-31878 - Orbit

View from above orbital plane
View from above orbital plane
View from above satellite
View from above satellite

Ground track
Ground track

The orbit is defined by the following mean orbital elements,

1 60031U          26145.66668980 +.00000000 +00000-0 +98860-3 0 00004
2 60031  53.1604  26.2199 0001191  87.5355  55.3549 15.33526624    03
Epoch (UTC): 25 May 2026 16:00:01
Eccentricity: 0.0001191
inclination: 53.1604°
perigee height: 464 km
apogee height: 466 km
right ascension of ascending node: 26.2199°
argument of perigee: 87.5355°
revolutions per day: 15.33526624
mean anomaly at epoch: 55.3549°

The dashed part of the orbit path shows where the satellite is in the earth's shadow,  

DLR